HYLAS 1

Last updated on Tue Jul 08 2025 00:02:45 GMT+0000 (Coordinated Universal Time)

1 37237U 10065A 25188.46190884 .00000038 00000+0 00000+0 0 9997 2 37237 4.7659 77.2851 0000786 326.6069 284.7093 1.00272189 3420
UTC large
Height (km)
Speed (km/s)
/
Latitude / Longitude
Inclination (degrees)
Orbital Period (minutes)
Azimuth
Elevation
Range (km)
Doppler Factor

Next 0 passes for location: London (51.5072 / 0.1276)

Sorry there are no passes over London.